• In Uzbekistan
  • List of Countries
  • For 7 days
  • Water Temperature
  • Satellite Maps
  • Weather Map
  • Weather Widgets
  • user-avatar
    Login

    Hourly Weather Osh

    Today, 24 June, Monday

    Time Temperature Precipitation Wind Pressure Humidity
    00:00 +20°C° 0 mm 3 mps 658 mmHg 37%
    01:00 +19°C° 0 mm 2 mps 658 mmHg 37%
    02:00 +19°C° 0 mm 2 mps 657 mmHg 38%
    03:00 +19°C° 0 mm 2 mps 657 mmHg 38%
    04:00 +18°C° 0 mm 2 mps 658 mmHg 39%
    05:00 +18°C° 0 mm 2 mps 658 mmHg 39%
    06:00 +21°C° 0 mm 1 mps 658 mmHg 36%
    07:00 +23°C° 0 mm 1 mps 659 mmHg 33%
    08:00 +23°C° 0 mm 0 mps 659 mmHg 29%
    09:00 +26°C° 0 mm 1 mps 659 mmHg 28%
    10:00 +27°C° 0 mm 1 mps 659 mmHg 27%
    11:00 +28°C° 0 mm 2 mps 659 mmHg 26%
    12:00 +29°C° 0 mm 2 mps 659 mmHg 25%
    13:00 +29°C° 0 mm 2 mps 659 mmHg 23%
    14:00 +30°C° 0 mm 2 mps 659 mmHg 22%
    15:00 +30°C° 0 mm 2 mps 659 mmHg 22%
    16:00 +30°C° 0 mm 2 mps 659 mmHg 22%
    17:00 +30°C° 0 mm 2 mps 659 mmHg 21%
    18:00 +28°C° 0 mm 2 mps 659 mmHg 24%
    19:00 +26°C° 0 mm 1 mps 659 mmHg 27%
    20:00 +24°C° 0 mm 1 mps 658 mmHg 30%
    21:00 +24°C° 0 mm 2 mps 658 mmHg 30%
    22:00 +23°C° 0 mm 2 mps 658 mmHg 31%
    23:00 +23°C° 0 mm 2 mps 658 mmHg 31%

    Tomorrow, 25 June, Tuesday

    Time Temperature Precipitation Wind Pressure Humidity
    00:00 +21°C° 0 mm 2 mps 658 mmHg 32%
    01:00 +21°C° 0 mm 2 mps 658 mmHg 32%
    02:00 +20°C° 0 mm 2 mps 657 mmHg 32%
    03:00 +20°C° 0 mm 2 mps 657 mmHg 33%
    04:00 +20°C° 0 mm 2 mps 657 mmHg 34%
    05:00 +20°C° 0 mm 2 mps 657 mmHg 35%
    06:00 +23°C° 0 mm 2 mps 657 mmHg 32%
    07:00 +25°C° 0 mm 1 mps 658 mmHg 30%
    08:00 +27°C° 0 mm 1 mps 659 mmHg 27%
    09:00 +28°C° 0 mm 2 mps 659 mmHg 26%
    10:00 +29°C° 0 mm 2 mps 659 mmHg 25%
    11:00 +30°C° 0 mm 3 mps 659 mmHg 24%
    12:00 +30°C° 0.1 mm 2 mps 659 mmHg 23%
    13:00 +30°C° 0.1 mm 2 mps 659 mmHg 22%
    14:00 +31°C° 0.1 mm 2 mps 658 mmHg 21%
    15:00 +31°C° 0 mm 2 mps 659 mmHg 20%
    16:00 +31°C° 0 mm 1 mps 659 mmHg 20%
    17:00 +31°C° 0 mm 1 mps 659 mmHg 19%
    18:00 +29°C° 0 mm 1 mps 659 mmHg 23%
    19:00 +27°C° 0 mm 2 mps 659 mmHg 27%
    20:00 +25°C° 0 mm 2 mps 658 mmHg 31%
    21:00 +25°C° 0 mm 2 mps 658 mmHg 31%
    22:00 +25°C° 0 mm 2 mps 658 mmHg 32%
    23:00 +24°C° 0 mm 2 mps 658 mmHg 32%

    Day after tomorrow, 26 June, Wednesday

    Time Temperature Precipitation Wind Pressure Humidity
    00:00 +23°C° 0 mm 2 mps 658 mmHg 33%
    01:00 +23°C° 0 mm 2 mps 657 mmHg 34%
    02:00 +21°C° 0 mm 2 mps 656 mmHg 35%
    03:00 +21°C° 0 mm 2 mps 656 mmHg 36%
    04:00 +21°C° 0 mm 2 mps 656 mmHg 36%
    05:00 +20°C° 0 mm 2 mps 656 mmHg 37%
    06:00 +23°C° 0 mm 1 mps 657 mmHg 33%
    07:00 +25°C° 0 mm 1 mps 657 mmHg 30%
    08:00 +25°C° 0 mm 0 mps 658 mmHg 27%
    09:00 +28°C° 0 mm 1 mps 658 mmHg 26%
    10:00 +29°C° 0 mm 2 mps 657 mmHg 25%
    11:00 +30°C° 0 mm 3 mps 657 mmHg 23%
    12:00 +31°C° 0 mm 3 mps 657 mmHg 22%
    13:00 +31°C° 0 mm 3 mps 657 mmHg 21%
    14:00 +32°C° 0 mm 2 mps 657 mmHg 19%
    15:00 +32°C° 0 mm 2 mps 657 mmHg 19%
    16:00 +32°C° 0 mm 2 mps 657 mmHg 18%
    17:00 +32°C° 0 mm 2 mps 657 mmHg 18%
    18:00 +30°C° 0 mm 2 mps 657 mmHg 20%
    19:00 +28°C° 0 mm 2 mps 657 mmHg 23%
    20:00 +26°C° 0 mm 2 mps 656 mmHg 25%
    21:00 +25°C° 0 mm 3 mps 656 mmHg 27%
    22:00 +24°C° 0 mm 3 mps 656 mmHg 29%
    23:00 +22°C° 0 mm 3 mps 656 mmHg 30%

    27 June, Thursday

    Time Temperature Precipitation Wind Pressure Humidity
    00:00 +22°C° 0 mm 3 mps 655 mmHg 30%
    01:00 +21°C° 0 mm 2 mps 655 mmHg 30%
    02:00 +21°C° 0 mm 2 mps 654 mmHg 30%
    03:00 +21°C° 0 mm 2 mps 654 mmHg 30%
    04:00 +20°C° 0 mm 2 mps 654 mmHg 31%
    05:00 +20°C° 0 mm 2 mps 654 mmHg 31%
    06:00 +24°C° 0 mm 2 mps 655 mmHg 28%
    07:00 +26°C° 0 mm 1 mps 655 mmHg 26%
    08:00 +28°C° 0 mm 1 mps 656 mmHg 23%
    09:00 +29°C° 0 mm 2 mps 656 mmHg 23%
    10:00 +30°C° 0 mm 3 mps 656 mmHg 22%
    11:00 +32°C° 0 mm 4 mps 656 mmHg 22%
    12:00 +33°C° 0 mm 4 mps 656 mmHg 21%
    13:00 +33°C° 0 mm 4 mps 656 mmHg 20%
    14:00 +34°C° 0 mm 5 mps 656 mmHg 18%
    15:00 +33°C° 0.1 mm 5 mps 656 mmHg 21%
    16:00 +32°C° 0.1 mm 5 mps 656 mmHg 23%
    17:00 +32°C° 0.1 mm 6 mps 656 mmHg 25%
    18:00 +29°C° 0 mm 5 mps 655 mmHg 27%
    19:00 +27°C° 0 mm 5 mps 655 mmHg 29%
    20:00 +25°C° 0 mm 4 mps 655 mmHg 31%
    21:00 +23°C° 0 mm 4 mps 655 mmHg 30%
    22:00 +24°C° 0 mm 3 mps 655 mmHg 29%
    23:00 +24°C° 0 mm 3 mps 655 mmHg 29%

    28 June, Friday

    Time Temperature Precipitation Wind Pressure Humidity
    00:00 +22°C° 0 mm 3 mps 654 mmHg 30%
    01:00 +22°C° 0 mm 3 mps 654 mmHg 30%
    02:00 +21°C° 0 mm 2 mps 654 mmHg 31%
    03:00 +21°C° 0 mm 2 mps 653 mmHg 32%
    04:00 +21°C° 0 mm 2 mps 653 mmHg 33%
    05:00 +21°C° 0 mm 2 mps 653 mmHg 34%
    06:00 +24°C° 0 mm 2 mps 654 mmHg 32%
    07:00 +26°C° 0 mm 2 mps 654 mmHg 29%
    08:00 +28°C° 0 mm 1 mps 655 mmHg 27%
    09:00 +29°C° 0 mm 2 mps 655 mmHg 26%
    10:00 +30°C° 0 mm 2 mps 655 mmHg 24%
    11:00 +31°C° 0 mm 3 mps 655 mmHg 23%
    12:00 +31°C° 0 mm 3 mps 655 mmHg 22%
    13:00 +32°C° 0 mm 2 mps 654 mmHg 21%
    14:00 +32°C° 0 mm 2 mps 654 mmHg 21%
    15:00 +32°C° 0 mm 2 mps 654 mmHg 20%
    16:00 +32°C° 0 mm 2 mps 654 mmHg 20%
    17:00 +32°C° 0 mm 2 mps 654 mmHg 19%
    18:00 +30°C° 0 mm 2 mps 654 mmHg 23%
    19:00 +28°C° 0 mm 2 mps 653 mmHg 28%
    20:00 +26°C° 0 mm 1 mps 653 mmHg 32%
    21:00 +25°C° 0 mm 2 mps 653 mmHg 32%
    22:00 +25°C° 0 mm 2 mps 654 mmHg 32%
    23:00 +24°C° 0 mm 2 mps 654 mmHg 32%

    29 June, Saturday

    Time Temperature Precipitation Wind Pressure Humidity
    00:00 +24°C° 0 mm 2 mps 654 mmHg 33%
    01:00 +23°C° 0 mm 2 mps 653 mmHg 34%
    02:00 +23°C° 0 mm 2 mps 653 mmHg 36%
    03:00 +23°C° 0.1 mm 2 mps 653 mmHg 36%
    04:00 +21°C° 0.1 mm 2 mps 653 mmHg 37%
    05:00 +21°C° 0.1 mm 3 mps 653 mmHg 37%
    06:00 +24°C° 0.1 mm 2 mps 653 mmHg 36%
    07:00 +25°C° 0.1 mm 2 mps 654 mmHg 36%
    08:00 +26°C° 0.1 mm 2 mps 654 mmHg 35%
    09:00 +27°C° 0 mm 2 mps 654 mmHg 32%
    10:00 +29°C° 0 mm 2 mps 654 mmHg 30%
    11:00 +30°C° 0 mm 2 mps 655 mmHg 27%
    12:00 +31°C° 0 mm 2 mps 655 mmHg 25%
    13:00 +32°C° 0 mm 2 mps 655 mmHg 23%
    14:00 +34°C° 0 mm 2 mps 655 mmHg 20%
    15:00 +34°C° 0 mm 2 mps 655 mmHg 20%
    16:00 +34°C° 0 mm 2 mps 655 mmHg 20%
    17:00 +34°C° 0 mm 2 mps 656 mmHg 20%
    18:00 +31°C° 0 mm 2 mps 655 mmHg 23%
    19:00 +29°C° 0 mm 2 mps 655 mmHg 26%
    20:00 +27°C° 0 mm 2 mps 655 mmHg 30%
    21:00 +26°C° 0 mm 2 mps 655 mmHg 30%
    22:00 +25°C° 0 mm 2 mps 655 mmHg 30%
    23:00 +25°C° 0 mm 2 mps 655 mmHg 31%
    Show more